This is the latest recevied weather packets stored in our database for station/object KD8JAM. If no packets are shown the sender has not sent any weather packets the latest 10 day(s).
| Time | Temp. | Humidity | Pressure | Rain* | Wind** | Luminosity | Snow |
|---|---|---|---|---|---|---|---|
| 1777421941 | 3.33° C | 97% | 1014.8 hPa | 0 mm | - | 6 W/m² | - |
| 1777421636 | 3.33° C | 97% | 1014.7 hPa | 0 mm | - | 6 W/m² | - |
| 1777421331 | 3.33° C | 97% | 1014.8 hPa | 0 mm | - | 6 W/m² | - |
| 1777421029 | 3.33° C | 97% | 1014.5 hPa | 0 mm | - | 10 W/m² | - |
| 1777420724 | 3.33° C | 97% | 1014.6 hPa | 0 mm | - | 8 W/m² | - |
| 1777420421 | 3.33° C | 97% | 1014.6 hPa | 0 mm | - | 10 W/m² | - |
| 1777420117 | 3.89° C | 97% | 1014.5 hPa | 0 mm | - | 12 W/m² | - |
| 1777419813 | 3.89° C | 96% | 1014.5 hPa | 0 mm | - | 11 W/m² | - |
| 1777419511 | 3.89° C | 96% | 1014.4 hPa | 0 mm | - | 12 W/m² | - |
| 1777419209 | 3.89° C | 96% | 1014.2 hPa | 0 mm | - | 16 W/m² | - |
| 1777418906 | 3.89° C | 96% | 1014.1 hPa | 0 mm | - | 16 W/m² | - |
| 1777418596 | 3.89° C | 95% | 1014 hPa | 0 mm | - | 29 W/m² | - |
| 1777418293 | 3.89° C | 95% | 1014 hPa | 0 mm | - | 31 W/m² | - |
| 1777417988 | 3.89° C | 95% | 1014.1 hPa | 0 mm | - | 23 W/m² | - |
| 1777417684 | 3.89° C | 96% | 1013.9 hPa | 0 mm | - | 26 W/m² | - |
| 1777417380 | 3.89° C | 95% | 1014 hPa | 0 mm | - | 32 W/m² | - |
| 1777417077 | 3.89° C | 95% | 1013.8 hPa | 0 mm | - | 39 W/m² | - |
| 1777416772 | 3.89° C | 95% | 1013.7 hPa | 0 mm | - | 51 W/m² | - |
| 1777416468 | 3.89° C | 95% | 1013.7 hPa | 0 mm | - | 50 W/m² | - |
| 1777416164 | 3.89° C | 95% | 1013.6 hPa | 0 mm | - | 39 W/m² | - |
| 1777415864 | 3.89° C | 95% | 1013.4 hPa | 0 mm | - | 72 W/m² | - |
| 1777415560 | 3.89° C | 95% | 1013.4 hPa | 0 mm | - | 47 W/m² | - |
| 1777415256 | 3.89° C | 95% | 1013.3 hPa | 0 mm | - | 45 W/m² | - |
| 1777414951 | 3.89° C | 95% | 1012.9 hPa | 0 mm | - | 61 W/m² | - |
| 1777414650 | 3.89° C | 94% | 1012.9 hPa | 0 mm | - | 82 W/m² | - |
* Rain latest hour (hover to see other rain measurements)
** Current wind speed in m/s (hover to see current wind gust speed)